Location: AstroGeek's Observatory
(41.9520°N, 70.9880°W)
Time: 07:39:23
(UTC-04:00)

ISS - All Passes

Search period start: 21 April 2015 00:00
Search period end: 01 May 2015 00:00
Orbit: 395 x 403 km, 51.6° (Epoch: 21 April)

Date Brightness Start Highest point End Pass type
(mag) Time Alt. Az. Time Alt. Az. Time Alt. Az.
21 Apr - 13:49:13 10° SW 13:52:26 61° SE 13:55:40 10° ENE daylight
21 Apr - 15:26:15 10° WNW 15:29:01 24° NNW 15:31:47 10° NE daylight
21 Apr - 17:04:13 10° NW 17:06:12 15° N 17:08:11 10° NE daylight
21 Apr - 18:40:39 10° NW 18:43:24 24° NNE 18:46:09 10° ENE daylight
21 Apr - 20:16:46 10° WNW 20:20:00 63° SW 20:23:12 10° SE visible
22 Apr - 12:55:35 10° SSW 12:58:28 30° SE 13:01:23 10° ENE daylight
22 Apr - 14:31:43 10° W 14:34:46 36° NNW 14:37:51 10° NE daylight
22 Apr - 16:09:44 10° NW 16:11:50 16° N 16:13:55 10° NNE daylight
22 Apr - 17:46:42 10° NNW 17:49:05 19° NNE 17:51:30 10° ENE daylight
22 Apr - 19:22:40 10° NW 19:25:55 67° NNE 19:29:09 10° ESE daylight
22 Apr - 21:00:04 10° W 21:01:57 14° SW 21:03:45 10° SSW visible
23 Apr - 12:02:31 10° S 12:04:30 16° SE 12:06:35 10° E daylight
23 Apr - 13:37:20 10° WSW 13:40:34 62° NNW 13:43:49 10° NE daylight
23 Apr - 15:15:02 10° WNW 15:17:25 18° NNW 15:19:47 10° NNE daylight
23 Apr - 16:52:34 10° NNW 16:54:41 16° N 16:56:48 10° NE daylight
23 Apr - 18:28:37 10° NW 18:31:42 38° NNE 18:34:47 10° E daylight
23 Apr - 20:05:08 10° WNW 20:07:59 27° SW 20:10:47 10° SSE visible
24 Apr - 12:43:09 10° SW 12:46:23 68° SE 12:49:38 10° ENE daylight
24 Apr - 14:20:17 10° WNW 14:23:00 23° NNW 14:25:42 10° NE daylight
24 Apr - 15:58:13 10° NW 16:00:11 15° N 16:02:10 10° NE daylight
24 Apr - 17:34:34 10° NW 17:37:21 25° NNE 17:40:09 10° E daylight
24 Apr - 19:10:42 10° WNW 19:13:54 56° SW 19:17:05 10° SE daylight
25 Apr - 11:49:18 10° SSW 11:52:14 33° SE 11:55:14 10° ENE daylight
25 Apr - 13:25:34 10° W 13:28:35 34° NNW 13:31:36 10° NE daylight
25 Apr - 15:03:35 10° NW 15:05:39 15° N 15:07:42 10° NNE daylight
25 Apr - 16:40:27 10° NW 16:42:53 19° NNE 16:45:21 10° ENE daylight
25 Apr - 18:16:25 10° NW 18:19:40 73° NNE 18:22:55 10° ESE daylight
25 Apr - 19:54:02 10° W 19:55:40 13° SW 19:57:11 10° SSW daylight
26 Apr - 10:55:57 10° S 10:58:07 17° SE 11:00:21 10° E daylight
26 Apr - 12:30:59 10° WSW 12:34:11 57° NNW 12:37:25 10° NE daylight
26 Apr - 14:08:45 10° WNW 14:11:04 18° NNW 14:13:22 10° NNE daylight
26 Apr - 15:46:11 10° NNW 15:48:19 16° N 15:50:28 10° NE daylight
26 Apr - 17:22:12 10° NW 17:25:18 40° NNE 17:28:24 10° E daylight
26 Apr - 18:58:47 10° WNW 19:01:32 25° SW 19:04:15 10° SSE daylight
27 Apr - 11:36:36 10° SW 11:39:51 75° SE 11:43:05 10° ENE daylight
27 Apr - 13:13:49 10° WNW 13:16:28 22° NNW 13:19:07 10° NE daylight
27 Apr - 14:51:42 10° NW 14:53:40 15° N 14:55:38 10° NE daylight
27 Apr - 16:27:58 10° NW 16:30:48 26° NNE 16:33:38 10° E daylight
27 Apr - 18:04:07 10° WNW 18:07:17 51° SW 18:10:26 10° SE daylight
28 Apr - 10:42:31 10° SSW 10:45:31 36° SE 10:48:33 10° ENE daylight
28 Apr - 12:18:55 10° W 12:21:52 32° NNW 12:24:51 10° NE daylight
28 Apr - 13:56:55 10° NW 13:58:57 15° N 14:00:58 10° NNE daylight
28 Apr - 15:33:41 10° NW 15:36:10 20° NNE 15:38:40 10° ENE daylight
28 Apr - 17:09:39 10° NW 17:12:55 80° NE 17:16:09 10° ESE daylight
28 Apr - 18:47:31 10° WSW 18:48:52 12° SW 18:50:05 10° SSW daylight
29 Apr - 09:48:55 10° S 09:51:12 18° SE 09:53:34 10° E daylight
29 Apr - 11:24:08 10° WSW 11:27:18 53° NNW 11:30:30 10° NE daylight
29 Apr - 13:01:55 10° NW 13:04:12 17° N 13:06:27 10° NNE daylight
29 Apr - 14:39:17 10° NNW 14:41:26 16° N 14:43:36 10° NE daylight
29 Apr - 16:15:16 10° NW 16:18:23 43° NNE 16:21:31 10° ESE daylight
29 Apr - 17:51:55 10° W 17:54:34 23° SW 17:57:12 10° S daylight
30 Apr - 10:29:33 10° SW 10:32:47 81° SE 10:36:02 10° ENE daylight
30 Apr - 12:06:49 10° WNW 12:09:25 22° NNW 12:12:01 10° NE daylight
30 Apr - 13:44:39 10° NW 13:46:37 15° N 13:48:35 10° NE daylight
30 Apr - 15:20:52 10° NW 15:23:44 28° NNE 15:26:36 10° E daylight
30 Apr - 16:57:02 10° WNW 17:00:11 46° SW 17:03:18 10° SE daylight
